Location: ?????????
(54.7630°N, 39.4991°E)
Time: 08:00:19
(UTC+00:00)

Cosmos 2228 - Pass Details

Date: 14 April 2026
Orbit: 561 x 588 km, 82.5° (Epoch: 14 May)

Event Time Altitude Azimuth Distance (km) Brightness Sun altitude
Exits shadow 21:15:56 31° 72° (ENE) 1,028 4.3 -25.6°
Drops below altitude 10° 21:19:05 10° 27° (NNE) 1,911 6.4 -25.6°
Sets 21:21:25 0° 18° (NNE) 2,811 7.6 -25.6°
